Temperature
16 16 16 16 16 16 15 15 15 15 15 15 14 14 14 14 14 14 13 13 13 13 13 13 13 13 13 13 13 13 13 12 12 12 12 12 12 12 12 12 12 12 12
17 16 16 16 16 16 16 15 15 15 15 15 14 14 14 14 14 14 13 13 13 13 13 13 13 13 12 12 12 12 12 12 12 12 12 11 11 12 12 12 12 12 12
17 16 16 16 16 16 16 15 15 15 15 15 14 14 14 14 14 14 13 13 13 13 13 12 12 12 12 12 12 12 12 12 11 11 11 11 11 11 11 11 11 12 11
17 17 16 16 16 16 15 15 15 15 15 14 14 14 14 14 13 13 13 13 13 12 12 12 12 12 12 12 12 11 11 11 11 11 11 11 11 11 11 11 11 11 11
17 17 16 16 16 16 16 15 15 15 15 14 14 14 14 14 13 13 13 13 12 12 12 12 12 12 12 12 11 11 11 11 11 11 10 10 10 10 10 10 10 10 10
17 17 17 16 16 16 16 15 15 15 15 14 14 14 14 14 13 13 13 13 12 12 12 11 11 12 12 12 11 11 11 11 10 10 10 10 10 10 10 10 10 10 10
17 17 17 16 16 16 16 15 15 15 15 14 14 14 13 13 13 13 13 12 12 12 11 11 11 11 11 11 11 11 11 11 11 10 10 10 9 9 10 10 9 9 9
17 17 17 16 16 16 16 15 15 15 15 14 14 14 14 13 13 13 13 12 12 12 11 11 11 11 11 11 10 10 10 10 10 10 10 10 10 10 10 9 9 9 9
17 17 17 17 16 16 16 15 15 15 14 14 14 14 13 13 13 13 12 12 11 11 11 11 11 11 11 11 10 10 10 10 10 10 10 10 10 10 10 9 9 9 9
17 17 17 17 16 16 16 15 15 15 14 14 14 13 13 13 13 13 12 11 11 11 11 11 11 11 10 10 10 10 10 9 9 9 9 9 9 9 9 9 8 8 8
17 17 17 17 16 16 15 15 15 14 14 13 13 13 13 13 13 13 12 12 11 11 11 10 11 10 10 10 10 10 9 9 9 9 9 9 9 8 8 8 8 8 8
17 17 17 16 16 15 15 15 14 14 14 13 13 13 13 12 12 12 12 12 11 11 10 10 10 10 10 10 10 9 9 9 9 9 8 8 8 8 8 8 8 8 8
17 17 16 16 15 15 15 15 14 14 13 13 13 13 12 12 12 12 12 12 11 11 10 10 10 10 10 9 9 9 9 9 8 8 8 8 8 8 8 8 8 7 7
16 16 16 15 15 15 15 14 14 14 13 13 13 12 12 12 12 12 12 11 11 11 10 10 10 10 9 9 9 9 9 8 8 8 8 8 8 7 7 7 7 7 7
16 15 15 15 15 14 14 14 14 14 13 13 13 13 12 12 12 12 12 11 11 11 10 10 9 9 9 9 8 8 8 8 8 8 8 7 7 7 7 7 7 6 6
15 15 15 14 14 14 14 14 14 14 13 13 13 12 12 12 12 12 11 11 11 10 10 9 9 9 8 8 8 8 8 8 8 7 7 7 7 7 6 6 6 6 6
15 15 15 14 14 14 13 13 13 13 13 13 13 12 12 12 12 11 11 11 10 10 9 9 8 8 8 8 8 8 8 8 8 7 7 7 7 6 6 6 6 6 5
14 14 14 14 14 14 13 13 13 13 13 12 12 12 12 12 11 11 11 10 10 10 9 9 8 8 8 8 8 8 7 7 7 7 7 7 6 6 6 6 6 5 5
14 14 14 14 13 13 13 13 13 12 12 12 12 12 12 11 11 11 10 10 9 9 9 8 8 8 8 8 8 8 7 7 7 7 7 6 6 6 5 5 5 5 5
14 14 14 13 13 13 13 12 12 12 12 12 11 11 11 11 10 10 10 10 9 9 9 8 8 8 8 8 7 7 7 7 7 6 6 6 6 5 5 5 5 5 4
13 13 13 13 12 12 12 12 12 12 11 11 11 11 11 11 10 10 10 10 9 9 9 8 8 8 8 7 7 7 7 6 6 6 6 6 5 5 5 5 4 4 4
13 13 12 12 12 12 12 12 12 11 11 11 11 11 10 10 10 10 9 9 9 9 9 8 8 8 7 7 7 7 6 6 6 6 5 5 5 5 5 4 4 4 4
12 12 12 12 12 12 11 11 11 11 11 10 10 10 10 10 9 9 9 9 9 9 8 8 8 7 7 7 7 6 6 6 6 5 5 5 5 4 4 4 4 3 3
12 12 11 11 11 11 11 11 10 10 10 10 10 10 10 9 9 9 9 9 8 8 8 7 7 7 7 7 6 6 6 6 5 5 5 4 4 4 4 4 3 3 3
11 11 11 11 11 10 10 10 10 10 10 9 9 9 9 9 9 8 8 8 8 8 7 7 7 7 7 6 6 6 6 6 5 5 4 4 4 4 3 3 3 3 3
11 11 10 10 10 10 10 9 9 9 9 9 9 8 8 8 8 8 8 7 7 7 7 7 7 6 6 6 6 6 5 5 5 5 4 4 3 3 3 3 3 2 2
Wind_Speed
9 8 7 6 5 4 4 4 3 3 3 3 3 3 2 2 2 3 3 3 3 4 4 4 4 4 3 3 3 3 2 2 2 3 3 4 5 6 7 6 6 5 6
9 9 7 6 6 5 5 4 4 4 3 3 3 2 3 2 2 2 3 3 3 4 4 4 4 4 4 4 3 3 3 3 3 3 3 4 5 6 6 6 5 6 5
10 9 9 8 7 6 5 5 4 4 4 3 3 3 2 2 2 2 2 2 3 3 4 4 4 4 4 4 3 3 3 2 2 2 3 4 4 5 5 5 5 5 5
11 10 9 8 7 7 6 6 5 5 4 4 3 3 2 2 2 2 2 2 2 3 3 3 4 4 4 4 3 3 3 2 2 2 3 3 4 5 4 4 4 5 4
11 11 10 9 8 7 6 6 5 5 4 4 4 3 2 2 1 1 1 1 2 2 2 3 4 5 7 5 4 4 3 2 2 2 3 3 3 4 4 4 4 4 4
12 11 9 9 8 8 7 7 6 5 5 4 4 4 3 2 3 1 1 1 1 1 1 2 2 3 3 3 4 5 6 4 4 3 3 4 5 4 4 4 4 4 4
12 11 10 10 9 9 8 7 7 6 5 5 4 4 4 3 5 3 2 1 1 1 0 0 1 1 1 1 1 2 1 2 4 5 4 4 5 5 5 5 5 5 5
12 11 10 10 10 9 8 8 7 6 6 5 4 4 4 4 5 4 4 3 2 1 1 1 1 1 2 3 2 2 2 2 3 4 4 5 5 5 5 5 5 6 5
12 12 11 11 10 10 9 9 8 7 6 5 5 4 4 5 5 5 5 3 3 2 2 2 2 2 2 5 4 3 3 2 1 2 4 5 5 5 5 4 4 4 5
13 12 11 11 11 10 10 9 7 6 6 5 5 5 5 4 5 6 6 3 3 2 2 2 1 2 2 5 5 4 4 4 4 3 3 4 4 3 4 5 4 5 5
12 11 11 11 11 10 9 8 7 6 6 6 5 5 5 4 6 6 6 4 3 3 3 3 2 2 3 4 6 5 4 6 5 5 4 4 3 3 3 4 4 5 5
11 11 11 11 9 9 9 8 7 7 7 6 5 5 4 4 4 6 7 6 5 4 4 3 2 3 4 5 5 4 6 7 5 4 4 4 4 4 4 5 5 6 6
11 11 11 11 10 9 9 9 8 7 6 5 5 5 4 4 4 5 7 7 6 5 4 2 2 4 6 7 6 6 6 5 4 4 5 4 4 5 5 5 6 6 7
11 10 10 10 10 10 8 8 7 7 6 6 5 5 4 4 4 4 5 5 6 6 5 4 6 7 7 6 5 6 5 4 5 5 5 5 4 5 5 5 5 5 6
10 10 10 9 9 9 8 6 7 7 6 6 6 5 5 5 4 3 4 5 4 4 5 5 5 5 5 5 5 5 5 5 5 5 5 5 5 5 5 5 5 6 6
9 9 8 8 8 7 7 6 2 3 4 5 4 5 5 3 3 5 6 4 3 4 5 5 5 5 5 5 5 5 5 5 5 5 6 6 6 6 6 6 6 6 7
9 8 7 7 8 7 7 7 6 4 4 5 5 5 5 4 5 6 6 6 6 6 6 6 6 6 5 5 6 6 6 6 5 6 6 6 6 6 7 7 6 7 7
8 7 7 7 7 7 8 7 7 7 6 5 6 7 7 6 6 7 6 5 5 6 6 7 6 6 6 6 6 6 6 6 6 6 6 6 6 7 7 7 7 8 8
7 6 6 6 7 7 7 7 7 7 6 5 4 5 7 7 8 8 8 6 6 6 7 7 7 7 6 6 6 6 7 7 7 7 7 7 7 7 8 8 8 8 9
6 6 6 6 6 6 7 7 7 7 7 6 6 5 5 5 5 6 7 7 7 7 7 7 7 7 7 7 7 7 7 7 8 8 7 7 7 7 8 9 8 8 9
5 6 7 6 6 6 6 7 7 7 7 6 6 6 7 7 7 7 7 7 7 8 8 7 7 7 7 7 7 8 9 8 8 8 8 8 8 8 8 8 9 9 9
5 5 6 6 6 6 6 6 6 7 7 7 5 5 8 7 6 6 6 7 7 7 7 7 7 7 7 7 7 8 8 8 8 8 8 8 8 8 8 9 9 9 9
5 5 6 6 6 6 6 6 6 6 6 6 6 5 6 6 6 6 6 6 6 6 6 7 7 7 8 8 8 8 8 8 8 8 8 8 8 8 8 9 10 11 10
5 5 5 5 5 6 6 6 6 6 6 6 6 6 6 6 6 6 6 5 5 6 6 7 7 9 10 9 9 9 9 9 9 9 10 9 9 9 9 9 9 11 11
4 4 5 5 5 5 5 5 6 6 6 6 5 5 5 5 5 5 5 5 5 6 7 7 7 8 11 12 11 10 9 9 9 9 9 8 9 9 9 9 9 10 10
4 4 4 4 5 5 5 5 5 5 5 5 5 5 5 5 5 5 5 5 5 5 6 7 8 9 10 10 11 11 9 9 10 10 9 8 8 8 8 8 10 10 10
Wind_Direction
186 184 179 174 168 168 165 162 158 153 150 141 126 114 100 86 76 76 62 61 47 46 38 36 29 19 11 9 5 357 348 333 312 329 348 355 356 359 3 5 13 19 44
186 184 179 172 169 172 167 163 166 160 155 148 137 126 105 92 79 72 69 61 52 46 39 34 31 27 21 16 9 7 8 352 327 332 341 353 358 3 0 358 8 18 20
184 183 181 180 177 176 172 169 171 167 161 159 152 140 124 112 98 84 76 71 58 49 43 38 34 30 29 31 19 18 17 13 350 334 346 352 353 358 356 1 8 9 5
182 185 186 184 182 179 176 175 176 173 170 168 161 153 144 131 113 105 98 84 72 65 56 50 42 33 27 26 26 23 19 19 6 349 348 352 356 355 349 352 355 360 356
183 187 188 184 180 179 176 176 175 175 179 173 169 165 157 157 126 124 122 103 85 78 71 61 55 46 31 20 14 11 7 4 6 359 355 348 351 350 351 343 341 339 348
186 189 183 180 176 178 180 179 174 176 184 182 184 180 173 161 111 99 272 154 135 109 93 83 86 72 66 62 37 20 5 360 358 355 345 341 340 341 336 327 335 334 333
185 181 178 180 177 178 178 177 177 182 185 190 192 187 183 150 140 160 243 239 206 209 219 137 65 50 322 23 115 189 48 2 334 327 333 334 328 332 322 322 326 325 321
184 180 179 180 178 176 177 178 183 185 183 192 193 192 187 169 162 177 219 230 221 222 239 255 265 301 359 331 318 317 326 339 326 316 327 328 327 325 314 309 309 308 302
186 184 181 180 178 177 179 182 184 185 184 190 188 188 194 185 172 188 226 221 225 229 240 262 279 285 29 308 296 302 304 308 218 271 310 313 314 310 308 300 310 309 314
188 187 181 180 180 180 180 181 181 183 186 189 188 195 199 201 169 191 231 232 233 234 238 237 239 303 320 297 290 297 301 313 311 289 264 259 275 265 259 285 304 303 309
184 180 177 179 182 181 176 177 178 180 185 194 193 199 205 205 179 191 223 239 244 248 246 244 218 201 270 281 285 293 310 306 296 293 295 295 294 304 304 302 306 300 299
176 175 176 178 176 175 172 174 179 180 187 195 200 202 211 207 207 196 211 237 269 252 254 255 233 195 250 263 270 293 293 282 281 286 287 290 295 302 307 306 301 295 293
173 175 176 175 175 175 174 174 178 185 196 203 207 213 215 215 202 198 213 225 242 254 261 287 276 235 246 244 239 261 268 271 279 280 284 290 296 299 300 297 294 293 292
174 176 176 176 177 177 179 182 185 191 200 205 211 218 221 218 219 214 219 220 219 239 253 234 225 235 245 262 255 247 257 269 277 278 283 286 290 287 284 288 291 292 291
176 178 179 180 179 180 183 189 196 198 203 207 211 215 221 227 221 219 233 230 231 239 249 247 249 250 252 256 259 260 260 257 260 267 274 278 279 280 282 284 287 290 289
178 179 179 178 179 181 183 187 192 216 184 203 221 231 223 225 188 195 217 230 223 216 235 247 252 257 262 264 263 262 260 262 266 268 271 274 277 279 281 278 276 279 284
183 179 179 182 181 183 187 194 197 198 196 203 206 219 231 202 187 195 202 210 208 207 233 250 256 258 262 264 265 265 264 264 265 264 265 269 273 276 277 277 276 276 278
185 180 181 185 188 190 195 201 203 203 205 213 207 205 209 208 204 201 194 198 219 221 240 250 256 259 260 260 262 264 265 264 261 262 265 268 271 273 275 276 276 278 281
184 183 186 190 192 195 198 202 207 211 215 215 213 201 201 209 209 204 199 226 236 237 241 248 254 258 259 260 262 263 264 263 263 263 265 267 270 273 274 275 278 280 279
189 178 183 189 193 195 199 203 208 212 215 218 220 216 198 206 219 214 218 232 241 245 247 249 251 254 255 257 260 260 262 263 265 263 265 266 267 269 273 275 278 279 277
190 184 183 194 201 202 202 206 209 212 217 223 226 213 197 213 223 226 226 233 240 246 249 251 252 252 252 254 256 259 262 264 263 263 263 265 267 268 271 273 274 276 280
195 195 197 201 202 205 208 211 213 216 219 224 230 215 196 219 229 232 235 239 242 247 251 253 255 255 253 251 253 257 261 264 264 264 265 266 267 268 269 271 273 276 278
201 201 203 204 205 200 208 214 216 219 222 224 224 221 214 224 232 237 243 248 250 252 254 254 256 257 256 255 253 255 259 263 264 265 264 264 265 266 268 269 271 275 277
201 206 206 206 207 210 214 217 219 222 226 228 227 225 226 229 235 241 246 252 254 256 256 257 259 260 261 262 260 257 260 266 271 269 265 264 264 264 264 266 269 272 275
199 205 208 211 211 213 216 219 222 223 224 226 229 232 234 234 239 245 252 254 259 261 263 264 264 266 267 267 265 264 262 260 262 268 267 262 263 264 265 266 269 274 275
197 204 211 214 216 217 218 220 223 223 225 229 233 234 235 238 243 248 254 259 263 265 267 267 267 271 274 272 272 273 266 253 250 256 262 262 261 261 264 266 270 271 274
Height
1573 1575 1577 1578 1579 1580 1581 1581 1582 1582 1582 1582 1582 1581 1581 1580 1579 1578 1577 1576 1576 1575 1573 1572 1571 1570 1569 1568 1567 1566 1565 1564 1563 1562 1560 1558 1556 1553 1551 1549 1548 1546 1545
1572 1574 1576 1577 1578 1579 1580 1581 1581 1581 1581 1582 1582 1581 1581 1580 1579 1579 1578 1577 1576 1575 1574 1572 1571 1570 1569 1568 1566 1565 1564 1563 1563 1561 1559 1557 1555 1553 1551 1549 1547 1546 1545
1569 1572 1574 1575 1577 1578 1579 1580 1580 1581 1581 1581 1581 1581 1580 1580 1579 1578 1578 1577 1576 1575 1574 1572 1571 1570 1569 1567 1566 1565 1564 1562 1561 1560 1558 1556 1555 1553 1551 1549 1547 1545 1544
1567 1569 1571 1573 1575 1576 1578 1578 1579 1580 1580 1580 1580 1580 1580 1579 1579 1578 1577 1577 1576 1575 1573 1572 1571 1569 1568 1567 1566 1564 1563 1562 1560 1559 1558 1556 1554 1552 1550 1549 1547 1545 1543
1564 1567 1569 1571 1573 1575 1576 1577 1578 1578 1579 1579 1579 1579 1579 1579 1578 1577 1577 1576 1575 1574 1573 1572 1570 1569 1567 1566 1565 1564 1563 1562 1560 1559 1557 1556 1554 1552 1550 1548 1547 1545 1543
1561 1564 1567 1569 1570 1572 1574 1575 1576 1577 1577 1578 1578 1578 1578 1577 1577 1576 1576 1575 1575 1574 1573 1571 1570 1569 1567 1566 1564 1563 1562 1561 1560 1559 1557 1555 1553 1552 1549 1548 1546 1544 1543
1558 1561 1563 1566 1568 1570 1571 1573 1574 1575 1575 1576 1576 1576 1576 1576 1575 1575 1575 1574 1573 1573 1572 1571 1570 1568 1567 1566 1564 1562 1561 1560 1559 1558 1556 1554 1553 1551 1549 1547 1545 1543 1542
1554 1557 1560 1563 1565 1567 1569 1570 1572 1573 1573 1574 1574 1574 1574 1574 1574 1574 1573 1573 1572 1571 1571 1570 1569 1567 1566 1564 1563 1562 1560 1559 1557 1556 1554 1553 1551 1549 1547 1546 1544 1542 1540
1551 1554 1557 1559 1562 1564 1566 1568 1569 1570 1571 1572 1572 1572 1572 1572 1572 1572 1571 1571 1571 1570 1569 1568 1567 1566 1564 1563 1562 1561 1559 1557 1555 1554 1552 1550 1548 1547 1545 1544 1542 1541 1539
1547 1550 1553 1556 1558 1561 1563 1565 1566 1568 1569 1569 1570 1570 1570 1570 1570 1569 1569 1569 1569 1568 1567 1566 1565 1564 1563 1561 1560 1559 1557 1556 1554 1552 1550 1549 1547 1545 1543 1542 1541 1539 1538
1544 1547 1550 1552 1555 1558 1560 1562 1563 1565 1566 1567 1567 1567 1567 1567 1567 1567 1567 1567 1567 1566 1565 1564 1563 1561 1560 1559 1558 1557 1555 1553 1552 1550 1549 1547 1545 1544 1542 1540 1539 1537 1535
1540 1543 1546 1549 1552 1554 1556 1558 1560 1561 1563 1564 1564 1565 1565 1565 1564 1564 1564 1564 1564 1563 1563 1562 1560 1559 1558 1556 1555 1554 1552 1551 1550 1548 1547 1545 1543 1542 1540 1538 1536 1534 1533
1536 1539 1542 1545 1548 1550 1552 1554 1556 1558 1559 1560 1561 1561 1561 1561 1561 1561 1561 1561 1560 1560 1559 1558 1557 1556 1555 1554 1552 1551 1550 1548 1547 1546 1544 1542 1541 1539 1537 1535 1533 1531 1529
1533 1536 1539 1541 1544 1546 1548 1551 1552 1554 1555 1556 1557 1557 1558 1558 1558 1558 1557 1557 1557 1556 1556 1555 1554 1553 1552 1550 1549 1548 1546 1545 1544 1542 1541 1539 1537 1535 1533 1532 1530 1528 1526
1530 1532 1535 1538 1540 1542 1544 1546 1548 1550 1551 1552 1553 1554 1554 1554 1554 1554 1554 1554 1553 1553 1552 1551 1550 1550 1548 1547 1546 1544 1543 1541 1540 1539 1538 1536 1534 1532 1531 1529 1527 1525 1523
1527 1529 1531 1534 1536 1538 1540 1543 1544 1546 1547 1548 1549 1550 1550 1550 1550 1550 1550 1550 1550 1549 1549 1548 1547 1546 1544 1543 1542 1541 1539 1538 1537 1535 1534 1532 1531 1529 1527 1525 1523 1521 1519
1524 1526 1528 1530 1532 1534 1536 1538 1540 1542 1543 1543 1544 1545 1545 1546 1546 1546 1546 1546 1545 1545 1544 1543 1542 1541 1540 1539 1538 1537 1535 1534 1532 1531 1529 1528 1526 1525 1523 1521 1519 1517 1515
1521 1522 1524 1526 1528 1530 1532 1534 1536 1537 1538 1538 1539 1540 1540 1541 1541 1542 1541 1541 1540 1540 1539 1538 1538 1537 1536 1534 1533 1532 1531 1529 1528 1526 1525 1523 1522 1520 1518 1516 1515 1513 1511
1517 1519 1520 1522 1524 1526 1528 1530 1531 1532 1533 1533 1534 1535 1535 1536 1536 1536 1536 1536 1535 1535 1534 1534 1533 1532 1531 1530 1528 1527 1526 1524 1522 1521 1519 1518 1516 1515 1513 1511 1510 1508 1506
1513 1515 1517 1518 1520 1522 1523 1525 1526 1527 1528 1528 1529 1529 1530 1530 1530 1530 1531 1530 1530 1530 1529 1529 1528 1527 1526 1524 1523 1521 1520 1518 1517 1515 1514 1512 1511 1509 1508 1506 1504 1503 1500
1509 1511 1513 1514 1516 1517 1518 1520 1521 1522 1522 1523 1523 1524 1524 1525 1525 1525 1525 1525 1525 1524 1524 1523 1522 1521 1519 1518 1517 1515 1514 1513 1511 1509 1508 1507 1505 1503 1502 1500 1499 1497 1495
1506 1507 1509 1510 1511 1512 1513 1515 1516 1516 1517 1518 1518 1519 1519 1519 1520 1520 1519 1519 1519 1518 1518 1517 1516 1514 1513 1512 1510 1509 1508 1506 1505 1503 1502 1500 1499 1497 1495 1494 1493 1491 1489
1502 1503 1504 1506 1507 1508 1509 1510 1510 1511 1512 1512 1513 1513 1513 1514 1514 1514 1514 1514 1513 1512 1511 1510 1509 1508 1507 1505 1504 1502 1501 1500 1498 1497 1495 1493 1492 1490 1489 1488 1486 1484 1483
1498 1499 1500 1501 1502 1503 1504 1505 1505 1506 1507 1507 1508 1508 1508 1508 1508 1508 1508 1508 1507 1506 1505 1504 1503 1501 1500 1499 1497 1496 1494 1493 1491 1490 1488 1486 1485 1484 1482 1481 1479 1478 1476
1494 1495 1496 1497 1498 1499 1499 1500 1500 1501 1501 1502 1502 1502 1502 1503 1503 1503 1502 1502 1501 1500 1499 1498 1496 1495 1493 1492 1490 1489 1487 1485 1484 1483 1481 1479 1478 1477 1476 1474 1473 1471 1470
1490 1491 1491 1492 1493 1494 1494 1495 1495 1496 1496 1497 1497 1497 1497 1497 1497 1496 1496 1496 1495 1494 1493 1492 1490 1489 1487 1485 1483 1482 1480 1478 1477 1476 1474 1472 1471 1470 1469 1467 1466 1465 1463